TimeCST,TemperatureF,Dew PointF,Humidity,Sea Level PressureIn,VisibilityMPH,Wind Direction,Wind SpeedMPH,Gust SpeedMPH,PrecipitationIn,Events,Conditions,WindDirDegrees,DateUTC
12:09 AM,33.8,32.0,93,29.95,7.0,SSE,5.8,-,N/A,,Overcast,160,2013-02-07 06:09:00
12:30 AM,33.8,32.0,93,29.95,7.0,SSE,4.6,-,N/A,,Overcast,150,2013-02-07 06:30:00
12:49 AM,33.8,32.0,93,29.95,7.0,SSE,4.6,-,N/A,,Overcast,160,2013-02-07 06:49:00
1:10 AM,33.8,32.0,93,29.94,7.0,SSE,3.5,-,N/A,,Overcast,150,2013-02-07 07:10:00
1:29 AM,33.4,32.0,94,29.94,7.0,ESE,3.5,-,N/A,,Overcast,120,2013-02-07 07:29:00
1:49 AM,33.8,32.0,93,29.94,7.0,SE,4.6,-,N/A,,Overcast,140,2013-02-07 07:49:00
2:10 AM,33.4,32.0,94,29.94,7.0,SE,4.6,-,N/A,,Overcast,140,2013-02-07 08:10:00
2:29 AM,33.8,32.0,93,29.94,7.0,SE,3.5,-,N/A,,Overcast,130,2013-02-07 08:29:00
2:50 AM,33.6,32.0,94,29.94,7.0,SE,4.6,-,N/A,,Overcast,130,2013-02-07 08:50:00
3:10 AM,33.3,32.0,95,29.93,5.0,ESE,3.5,-,N/A,,Overcast,110,2013-02-07 09:10:00
3:30 AM,33.3,32.0,95,29.93,5.0,East,3.5,-,N/A,,Overcast,90,2013-02-07 09:30:00
3:49 AM,32.9,32.0,96,29.93,5.0,East,3.5,-,N/A,,Overcast,80,2013-02-07 09:49:00
4:10 AM,32.4,31.8,98,29.93,3.0,ENE,3.5,-,N/A,,Overcast,60,2013-02-07 10:10:00
4:30 AM,32.0,31.6,99,29.92,3.0,East,4.6,-,N/A,,Mostly Cloudy,90,2013-02-07 10:30:00
4:49 AM,32.0,31.1,96,29.92,3.0,East,4.6,-,N/A,,Mostly Cloudy,100,2013-02-07 10:49:00
5:10 AM,31.8,31.1,97,29.92,3.0,East,4.6,-,N/A,,Mostly Cloudy,80,2013-02-07 11:10:00
5:30 AM,31.5,30.7,97,29.93,2.5,ESE,3.5,-,N/A,,Clear,110,2013-02-07 11:30:00
5:49 AM,30.7,30.0,97,29.93,2.0,Calm,Calm,-,N/A,,Clear,0,2013-02-07 11:49:00
6:09 AM,29.5,28.9,98,29.93,0.8,Calm,Calm,-,N/A,,Mostly Cloudy,0,2013-02-07 12:09:00
6:30 AM,30.2,29.8,99,29.93,1.0,NE,3.5,-,N/A,,Mostly Cloudy,40,2013-02-07 12:30:00
6:50 AM,29.8,29.3,98,29.94,1.5,NNE,3.5,-,N/A,,Mist,20,2013-02-07 12:50:00
7:10 AM,30.0,29.8,99,29.94,1.2,NNE,4.6,-,N/A,,Mostly Cloudy,30,2013-02-07 13:10:00
7:30 AM,29.8,29.7,99,29.94,1.0,North,3.5,-,N/A,,Overcast,360,2013-02-07 13:30:00
7:49 AM,29.8,29.7,99,29.95,1.0,North,4.6,-,N/A,,Overcast,10,2013-02-07 13:49:00
8:10 AM,29.3,29.3,100,29.95,1.5,North,6.9,-,N/A,,Overcast,10,2013-02-07 14:10:00
8:30 AM,29.3,29.1,99,29.96,1.8,North,6.9,-,N/A,,Overcast,360,2013-02-07 14:30:00
8:50 AM,29.3,28.9,99,29.96,2.0,NNE,8.1,-,N/A,,Overcast,30,2013-02-07 14:50:00
9:10 AM,29.7,28.8,96,29.97,2.0,NNE,6.9,-,N/A,,Overcast,30,2013-02-07 15:10:00
9:30 AM,29.7,28.2,94,29.97,2.0,NE,8.1,-,N/A,,Overcast,40,2013-02-07 15:30:00
9:49 AM,29.3,27.5,93,29.98,2.0,NNE,9.2,-,N/A,,Overcast,30,2013-02-07 15:49:00
10:10 AM,29.3,27.5,93,29.98,2.0,North,10.4,-,N/A,,Overcast,10,2013-02-07 16:10:00
10:30 AM,29.7,27.3,91,29.99,2.5,NNE,10.4,-,N/A,,Overcast,20,2013-02-07 16:30:00
10:50 AM,29.1,26.6,90,30.00,2.0,North,9.2,-,N/A,,Overcast,10,2013-02-07 16:50:00
11:10 AM,29.1,26.6,90,29.99,2.0,NNE,10.4,16.1,N/A,,Overcast,20,2013-02-07 17:10:00
11:30 AM,29.1,26.6,90,29.99,2.0,NNE,8.1,-,N/A,,Overcast,20,2013-02-07 17:30:00
11:49 AM,29.1,26.6,90,29.98,2.0,North,10.4,-,N/A,,Overcast,10,2013-02-07 17:49:00
12:09 PM,28.9,26.6,91,29.98,1.8,North,8.1,-,N/A,,Overcast,10,2013-02-07 18:09:00
12:30 PM,28.4,26.6,93,29.98,1.2,North,9.2,-,N/A,,Overcast,10,2013-02-07 18:30:00
12:49 PM,28.0,26.6,94,29.97,0.8,NNE,9.2,16.1,N/A,,Overcast,20,2013-02-07 18:49:00
1:10 PM,27.9,27.0,96,29.97,0.5,North,11.5,-,N/A,Fog,Light Freezing Fog,360,2013-02-07 19:10:00
1:30 PM,27.5,26.6,96,29.98,0.8,North,10.4,-,N/A,,Overcast,360,2013-02-07 19:30:00
1:49 PM,27.3,26.6,97,29.97,0.8,North,10.4,-,N/A,,Overcast,360,2013-02-07 19:49:00
2:10 PM,27.1,26.4,97,29.98,0.8,North,16.1,-,N/A,,Overcast,350,2013-02-07 20:10:00
2:30 PM,26.6,26.1,98,29.98,0.5,North,12.7,-,N/A,Fog,Light Freezing Fog,360,2013-02-07 20:30:00
2:49 PM,26.4,25.7,97,29.98,0.5,North,13.8,-,N/A,Fog,Light Freezing Fog,360,2013-02-07 20:49:00
3:10 PM,26.2,25.7,98,29.99,1.0,North,15.0,-,N/A,,Overcast,350,2013-02-07 21:10:00
3:30 PM,26.2,25.7,98,29.99,1.5,North,13.8,-,N/A,,Overcast,360,2013-02-07 21:30:00
3:50 PM,26.2,25.3,96,30.00,2.0,North,15.0,20.7,N/A,,Overcast,360,2013-02-07 21:50:00
4:10 PM,26.1,24.8,95,30.00,2.0,North,11.5,18.4,N/A,,Overcast,10,2013-02-07 22:10:00
4:30 PM,25.7,24.8,96,30.01,2.5,North,11.5,-,N/A,,Overcast,360,2013-02-07 22:30:00
4:50 PM,25.5,24.6,96,30.03,1.8,North,11.5,-,N/A,,Overcast,360,2013-02-07 22:50:00
5:29 PM,25.2,23.9,95,30.05,2.5,North,9.2,-,N/A,,Overcast,360,2013-02-07 23:29:00
5:49 PM,25.2,23.9,95,30.05,3.0,North,11.5,19.6,N/A,,Overcast,360,2013-02-07 23:49:00
6:10 PM,25.0,23.9,96,30.07,3.0,North,12.7,20.7,N/A,,Overcast,360,2013-02-08 00:10:00
6:29 PM,24.8,23.9,96,30.07,3.0,North,16.1,-,N/A,,Overcast,360,2013-02-08 00:29:00
6:49 PM,24.8,23.5,95,30.08,5.0,North,16.1,23.0,N/A,,Overcast,360,2013-02-08 00:49:00
7:10 PM,24.6,23.0,94,30.09,5.0,North,15.0,21.9,N/A,,Overcast,360,2013-02-08 01:10:00
7:30 PM,24.4,23.0,94,30.09,10.0,North,12.7,20.7,N/A,,Overcast,10,2013-02-08 01:30:00
7:50 PM,24.4,23.0,94,30.10,7.0,North,11.5,17.3,N/A,,Overcast,10,2013-02-08 01:50:00
8:10 PM,24.4,23.4,96,30.10,5.0,North,9.2,-,N/A,,Overcast,360,2013-02-08 02:10:00
8:29 PM,24.3,23.0,95,30.11,7.0,North,12.7,17.3,N/A,,Overcast,360,2013-02-08 02:29:00
8:49 PM,23.9,22.8,96,30.12,10.0,North,12.7,19.6,N/A,,Overcast,360,2013-02-08 02:49:00
9:09 PM,23.9,22.8,96,30.13,10.0,North,13.8,-,N/A,,Overcast,360,2013-02-08 03:09:00
9:30 PM,23.9,22.5,94,30.13,10.0,North,13.8,-,N/A,,Overcast,360,2013-02-08 03:30:00
9:50 PM,23.9,22.5,94,30.14,10.0,North,9.2,-,N/A,,Overcast,360,2013-02-08 03:50:00
10:09 PM,23.9,22.3,94,30.14,10.0,North,10.4,-,N/A,,Overcast,10,2013-02-08 04:09:00
10:29 PM,23.9,22.1,93,30.14,10.0,North,11.5,-,N/A,,Overcast,10,2013-02-08 04:29:00
10:49 PM,23.9,22.1,93,30.15,10.0,NNE,10.4,-,N/A,,Overcast,20,2013-02-08 04:49:00
11:09 PM,23.9,22.1,93,30.15,10.0,North,11.5,18.4,N/A,,Overcast,10,2013-02-08 05:09:00
11:29 PM,23.9,22.1,93,30.16,10.0,North,10.4,-,N/A,,Overcast,10,2013-02-08 05:29:00
11:49 PM,23.9,22.1,93,30.17,10.0,North,11.5,17.3,N/A,,Overcast,10,2013-02-08 05:49:00